www.pogodaiklimat.ru

Погода и климат >> Архив погоды >> Россия >> Крым >> Феодосия


АРХИВ ПОГОДЫ в Феодосии

Время (UTC), дата Ветер
(напр.,м/с)
 
Видим.   Явления Облачность Т
(С)
Тd
(С)
f
(%)
Тe
(С)
Тes
(С)
Комфортность P
(гПа)
Po
(гПа)
Тmin
(С)
Tmax
(С)
R
(мм)
S
(см)
09 16.03 З 2 10 км в посл. час ливневой дождь 10 баллов +8.0 +2.9 70 +6 +6 тепло 1015.2 1012.0
12 16.03 Ю 3 10 км 10 баллов +8.6 +4.0 73 +6 +6 по сезону 1013.9 1010.7
15 16.03 ЮЗ 2 10 км 10 баллов +8.8 +3.0 67 +7 +7 тепло 1012.5 1009.3 0.0
18 16.03 З 2 10 км слабый ливневой дождь 10 баллов +8.1 +3.0 70 +6 +6 тепло 1013.9 1010.7 +10.0 0.0
21 16.03 штиль 0 10 км слабый ливневой дождь 10 баллов +5.3 +4.1 92 +4 +4 тепло 1013.9 1010.7
00 17.03 штиль 0 10 км 7 баллов +5.1 +3.9 92 +4 +4 тепло 1013.9 1010.7
03 17.03 С 1 10 км 5 баллов +5.4 +3.6 88 +4 +4 тепло 1013.9 1010.7 +4.2 2
06 17.03 Ю 2 10 км 10 баллов +7.6 -0.1 58 +6 +6 тепло 1013.9 1010.7 +4.2 2
09 17.03 Ю 3 10 км 10 баллов +10.2 +2.1 57 +8 +8 тепло 1015.2 1012.0
12 17.03 ЮВ 3 10 км 9 баллов +9.1 +3.7 69 +7 +7 по сезону 1013.9 1010.7
15 17.03 В 1 10 км 10 баллов +8.1 +3.7 74 +7 +7 тепло 1013.9 1010.7
18 17.03 З 1 10 км 2 балла +5.6 +3.4 86 +4 +4 по сезону 1015.2 1012.0 +10.6
21 17.03 З 1 10 км 4 балла +5.4 +2.4 81 +4 +4 тепло 1015.2 1012.0
00 18.03 З 1 10 км 4 балла +4.6 +2.1 84 +3 +3 по сезону 1015.2 1012.0
03 18.03 З 2 10 км 4 балла +4.2 +1.7 84 +1 +1 по сезону 1013.9 1010.7 +4.2
06 18.03 З 2 10 км 6 баллов +7.8 +1.8 66 +6 +8 тепло 1015.2 1012.0 +3.6
09 18.03 Ю 1 10 км 9 баллов +8.4 +1.5 62 +8 +9 тепло 1015.2 1012.0
12 18.03 Ю 3 10 км 7 баллов +9.7 +3.4 65 +8 +9 тепло 1013.9 1010.7
15 18.03 Ю 3 10 км 7 баллов +8.3 +2.5 67 +6 +6 по сезону 1012.5 1009.3
18 18.03 Ю 5 10 км 9 баллов +7.0 +1.5 68 +3 +3 по сезону 1012.5 1009.3 +10.2
21 18.03 Ю 3
{13}
10 км 10 баллов +7.2 +2.7 73 +4 +4 по сезону 1011.2 1008.0
00 19.03 Ю 5
{12}
10 км в посл. час ливневой дождь 10 баллов +6.9 +3.3 78 +3 +3 по сезону 1008.5 1005.3
03 19.03 Ю 6
{14}
10 км слабый ливневой дождь 10 баллов +7.3 +4.4 82 +3 +3 по сезону 1005.9 1002.7 +6.9 0.1
06 19.03 Ю 7
{16}
10 км слабый ливневой дождь 10 баллов +7.4 +5.4 87 +3 +3 по сезону 1005.9 1002.7 +6.9 0.4
09 19.03 Ю 7
{18}
10 км в посл. час ливневой дождь 10 баллов +7.7 +6.2 90 +3 +3 по сезону 1003.2 1000.0
12 19.03 Ю 6
{18}
20 км 7 баллов +10.9 +5.6 70 +8 +9 по сезону 1001.8 998.7
15 19.03 Ю 3
{12}
10 км 9 баллов +9.6 +6.1 79 +7 +7 тепло 1001.8 998.7 1
18 19.03 СЗ 1 10 км слабый ливневой дождь 10 баллов +9.0 +7.4 90 +8 +8 тепло 1003.1 1000.0 +11.6 1
21 19.03 СЗ 3 10 км слабый ливневой дождь 10 баллов +6.0 +5.0 93 +3 +3 по сезону 1003.2 1000.0
00 20.03 СЗ 4 10 км слабый ливневой дождь 10 баллов +4.8 +3.1 89 +1 +1 по сезону 1004.5 1001.3
03 20.03 З 3 10 км 10 баллов +3.9 +1.6 85 0 0 по сезону 1005.9 1002.7 +3.9 8
06 20.03 З 2 10 км 9 баллов +4.6 +0.7 76 +2 +2 по сезону 1008.5 1005.3 +3.9 8
09 20.03 З 3
{10}
20 км 7 баллов +7.2 +1.3 66 +5 +7 по сезону 1009.9 1006.7
12 20.03 З 2 20 км 10 баллов +7.4 +2.1 69 +6 +6 по сезону 1011.2 1008.0
15 20.03 З 1 20 км в посл. час ливневой дождь 9 баллов +7.4 +1.3 65 +7 +7 тепло 1012.5 1009.3 0.1
18 20.03 СЗ 1 10 км 9 баллов +6.7 -0.1 62 +6 +6 тепло 1013.9 1010.7 +8.3 0.1
21 20.03 ЮЗ 1 10 км 9 баллов +5.4 +0.2 69 +4 +4 тепло 1013.9 1010.7
00 21.03 З 1 10 км 9 баллов +5.6 +1.3 74 +5 +5 тепло 1013.9 1010.7
03 21.03 З 1 10 км 10 баллов +6.6 -1.3 57 +6 +6 тепло 1015.2 1012.0 +5.2
06 21.03 З 1 20 км 9 баллов +7.5 -2.2 50 +7 +8 тепло 1016.5 1013.3 +5.2
09 21.03 Ю 2 10 км 9 баллов +9.6 +1.7 58 +8 +9 тепло 1017.9 1014.7
12 21.03 Ю 3 10 км 9 баллов +9.5 +0.9 55 +8 +8 по сезону 1017.9 1014.7
15 21.03 Ю 2 10 км 9 баллов +8.9 +3.7 70 +7 +7 по сезону 1017.9 1014.7
18 21.03 С 1 10 км 7 баллов +8.2 +4.4 77 +8 +8 тепло 1017.9 1014.7 +11.4
21 21.03 СЗ 1 10 км 7 баллов +6.4 +1.9 73 +6 +6 тепло 1019.2 1016.0
00 22.03 З 1 10 км 7 баллов +6.8 +2.5 74 +6 +6 тепло 1019.2 1016.0
03 22.03 З 1 10 км ясно +3.6 +2.1 90 +2 +2 по сезону 1022.0 1018.7 +3.6
06 22.03 З 1 10 км 2 балла +8.9 +2.0 62 +9 +12 тепло 1023.2 1020.0 +3.5
09 22.03 В 2 10 км 4 балла +10.2 +2.8 60 +9 +16 тепло 1023.2 1020.0
12 22.03 В 2 10 км 4 балла +12.8 +1.5 46 +12 +17 тепло 1023.2 1020.0
15 22.03 В 1 10 км ясно +10.3 +0.3 50 +10 +11 тепло 1023.2 1020.0
18 22.03 З 1 10 км ясно +6.1 +0.2 66 +5 +5 по сезону 1023.2 1020.0 +13.2
21 22.03 З 1 10 км ясно +4.6 -1.2 66 +4 +4 по сезону 1023.3 1020.0
00 23.03 З 1 10 км ясно +3.5 0.0 78 +2 +2 по сезону 1023.3 1020.0
03 23.03 З 1 10 км ясно +4.9 -0.3 69 +4 +4 по сезону 1023.3 1020.0 +3.5
06 23.03 З 2 20 км ясно +9.8 +1.2 55 +9 +13 тепло 1025.9 1022.7 +3.5

 

Местоположение метеостанции Феодосия (Крым, Россия): широта 45.03 долгота 35.38 высота над уровнем моря 26 м.

В архиве по умолчанию представлена погода в Феодосии за последнюю неделю. Архивные данные за месяц целиком и за предыдущие месяцы, начиная с января 2011 года, Вы можете получить, выбрав интересующий диапазон дат из раскрывающегося списка и нажав кнопку "Ввод!".

Внимание! Время в таблицах - всемирное. Для получения местного времени необходимо прибавить поправку, которая в Феодосии равна 3 ч.

Смотрите также архив погоды в соседних городах и на ближайших метеорологических станциях:

Погода на Мысовом (Крым, Россия) (58 км)
Погода в Белогорске (Крым, Россия) (61 км)
Погода в Нижнегорском (Крым, Россия) (69 км)
Погода в Стрелковом (Херсонская область, Украина) (87 км)
Погода в Алуште (Крым, Россия) (87 км)
Погода в Керчи (Крым, Россия) (91 км)
Погода в Никитском саду (Крым, Россия) (106 км)
Погода в Тамани (Краснодарский край, Россия) (107 км)
Погода в Джанкое (Крым, Россия) (108 км)
Погода в Клепинино (Крым, Россия) (109 км)

Пояснения к столбцам:

Ветер - указаны скорость ветра в м/с - средняя за 10 мин, порывы в срок и между сроками (в фигурных скобках) и направление, откуда дует ветер: С - северный, СВ - северо-восточный, В - восточный, ЮВ - юго-восточный, Ю - южный, ЮЗ - юго-западный, З - западный, СЗ - северо-западный.
Видимость - горизонтальная дальность видимости в метрах или километрах. При видимости от 1 до 10 км при отсутствии осадков обычно наблюдается дымка, при ухудшении видимости до 1 км и менее - туман. В сухую погоду видимость может ухудшаться дымом, пылью или мглою.
Явления - указаны атмосферные явления, наблюдавшиеся в срок или в последний час перед сроком; фигурными скобками обозначены явления, наблюдавшиеся между сроками (за 1-3 часа до срока); квадратными скобками обозначены град или гололедные отложения с указанием их диаметра в мм.
Облачность - указаны через наклонную черту общая и нижняя облачность в баллах и высота нижней границы облаков в метрах; квадратными скобками обозначены формы облаков: Ci - перистые, Cs - перисто-слоистые, Cc - перисто-кучевые, Ac - высококучевые, As - высокослоистые, Sc - слоисто-кучевые, Ns - слоисто-дождевые, Cu - кучевые, Cb - кучево-дождевые. Подробнее классификацию облаков см. в Атласе облаков (PDF).
T - Температура воздуха - температура, измеренная на высоте 2 м над землей.
Td - Температура точки росы - температура, при понижении до которой содержащийся в воздухе водяной пар достигнет насыщения.
f - Относительная влажность воздуха - влажноcть воздуха, измеренная на высоте 2 м над землей.
Te - Эффективная температура - температура, которую ощущает одетый по сезону человек в тени. Характеристика душности погоды. При расчете учитывается влияние влажности воздуха и скорости ветра на теплоощущения человека.
Tes - Эффективная температура на солнце - температура, которую ощущает человек, с поправкой на солнечный нагрев. Характеристика знойности погоды. Зависит от высоты солнца над горизонтом, облачности и скорости ветра. Ночью, в пасмурную погоду, а также при ветре 12 м/с и более поправка равна нулю.
P - Атмосферное давление - приведенное к уровню моря атмосферное давление.
Po - Атмосферное давление - измеренное на уровне метеостанции атмосферное давление.
Tmin - Минимальная температура - минимум температуры воздуха на высоте 2 м над землей.
Tmax - Максимальная температура - максимум температуры воздуха на высоте 2 м над землей.
R - Количество осадков - Количество выпавших осадков, мм. При наведении курсора мыши на число - период времени, за который выпало указанное количество осадков.
S - Снежный покров - Высота снежного покрова, см. При наведении курсора мыши на число - состояние снежного покрова и степень покрытия местности в баллах.